KPF660 EKOD-EKBI

Flight info

Callsign KPF660
Flight time 0h 12m
Altitude 12000
Route NAVDA DCT BEVRA DCT LOKSA DCT ELRIT
Aircraft CL60/M-SBDE1E2E3FGHIJ1J4J5J7M3RWXYZ/LB1V1D1

Departure

Time 2026-05-07 10:30
Airport Odense Hans Christian Andersen Airport (EKOD)

Arrival

Time 2026-05-07 10:43
Airport Billund Airport (EKBI)
Time Latitude Longitude Altitude Speed Heading
2026-05-07 10:09 55.47360 10.32851 61 ft 0 kts 316°
2026-05-07 10:26 55.47363 10.32844 61 ft 2 kts 302°
2026-05-07 10:26 55.47375 10.32783 61 ft 7 kts 293°
2026-05-07 10:26 55.47407 10.32688 61 ft 4 kts 304°
2026-05-07 10:26 55.47437 10.32626 61 ft 1 kts 317°
2026-05-07 10:27 55.47459 10.32592 61 ft 6 kts 316°
2026-05-07 10:27 55.47466 10.32491 61 ft 11 kts 242°
2026-05-07 10:27 55.47416 10.32342 60 ft 16 kts 239°
2026-05-07 10:27 55.47353 10.32149 58 ft 13 kts 240°
2026-05-07 10:28 55.47296 10.31979 56 ft 18 kts 239°
2026-05-07 10:28 55.47241 10.31809 55 ft 16 kts 239°
2026-05-07 10:28 55.47185 10.31643 54 ft 8 kts 240°
2026-05-07 10:28 55.47149 10.31526 53 ft 13 kts 242°
2026-05-07 10:29 55.47116 10.31402 53 ft 6 kts 254°
2026-05-07 10:29 55.47099 10.31386 53 ft 6 kts 57°
2026-05-07 10:29 55.47104 10.31399 53 ft 0 kts 58°
2026-05-07 10:30 55.47590 10.32863 147 ft 166 kts 59°
2026-05-07 10:30 55.48245 10.34811 875 ft 200 kts 60°
2026-05-07 10:30 55.48930 10.36981 1674 ft 205 kts 61°
2026-05-07 10:30 55.49628 10.39137 2447 ft 205 kts 60°
2026-05-07 10:31 55.50477 10.41184 3039 ft 214 kts 42°
2026-05-07 10:31 55.51817 10.42298 3327 ft 219 kts
2026-05-07 10:31 55.53430 10.42122 3847 ft 250 kts 343°
2026-05-07 10:31 55.54940 10.40409 4435 ft 265 kts 310°
2026-05-07 10:32 55.55666 10.37445 5040 ft 269 kts 280°
2026-05-07 10:32 55.55901 10.34196 5678 ft 269 kts 277°
2026-05-07 10:32 55.56125 10.30901 6331 ft 270 kts 278°
2026-05-07 10:32 55.56354 10.27615 6984 ft 271 kts 278°
2026-05-07 10:33 55.56590 10.24319 7646 ft 273 kts 278°
2026-05-07 10:33 55.56836 10.20983 8301 ft 275 kts 278°
2026-05-07 10:33 55.57091 10.17621 8977 ft 278 kts 278°
2026-05-07 10:33 55.57361 10.14185 9658 ft 282 kts 279°
2026-05-07 10:34 55.57651 10.10776 10336 ft 285 kts 279°
2026-05-07 10:34 55.57950 10.07307 11019 ft 287 kts 279°
2026-05-07 10:34 55.58250 10.03807 11695 ft 294 kts 279°
2026-05-07 10:34 55.58582 9.99969 12005 ft 335 kts 279°
2026-05-07 10:35 55.58946 9.95796 11975 ft 341 kts 280°
2026-05-07 10:35 55.59645 9.91821 11321 ft 334 kts 297°
2026-05-07 10:35 55.60983 9.88557 10549 ft 328 kts 314°
2026-05-07 10:35 55.62580 9.85755 9789 ft 320 kts 316°
2026-05-07 10:36 55.64125 9.83049 9159 ft 305 kts 315°
2026-05-07 10:36 55.65584 9.80487 8871 ft 283 kts 315°
2026-05-07 10:36 55.66960 9.78068 8436 ft 277 kts 315°
2026-05-07 10:36 55.68327 9.75662 7934 ft 273 kts 315°
2026-05-07 10:37 55.69667 9.73301 7435 ft 271 kts 315°
2026-05-07 10:37 55.71002 9.70946 6922 ft 268 kts 315°
2026-05-07 10:37 55.72319 9.68619 6428 ft 266 kts 315°
2026-05-07 10:37 55.73623 9.66313 5934 ft 264 kts 315°
2026-05-07 10:38 55.74795 9.63817 5426 ft 263 kts 299°
2026-05-07 10:38 55.75328 9.60780 4932 ft 260 kts 274°
2026-05-07 10:38 55.75291 9.57577 4431 ft 260 kts 267°
2026-05-07 10:38 55.75194 9.54332 3921 ft 260 kts 268°
2026-05-07 10:39 55.75103 9.51122 3417 ft 260 kts 268°
2026-05-07 10:39 55.75016 9.47923 2914 ft 260 kts 268°
2026-05-07 10:39 55.74928 9.44714 2481 ft 262 kts 267°
2026-05-07 10:39 55.74833 9.41456 2060 ft 257 kts 267°
2026-05-07 10:40 55.74743 9.38437 1987 ft 231 kts 267°
2026-05-07 10:40 55.74657 9.35749 2014 ft 211 kts 266°
2026-05-07 10:40 55.74571 9.33147 1936 ft 208 kts 266°
2026-05-07 10:40 55.74495 9.30637 1668 ft 196 kts 266°
2026-05-07 10:41 55.74426 9.28268 1421 ft 185 kts 266°
2026-05-07 10:41 55.74364 9.26140 1159 ft 177 kts 266°
2026-05-07 10:41 55.74305 9.24153 1019 ft 149 kts 266°
2026-05-07 10:41 55.74251 9.22346 784 ft 143 kts 266°
2026-05-07 10:42 55.74198 9.20617 538 ft 138 kts 266°
2026-05-07 10:42 55.74148 9.18913 384 ft 137 kts 266°
2026-05-07 10:42 55.74095 9.17224 253 ft 126 kts 266°
2026-05-07 10:42 55.74059 9.15955 235 ft 60 kts 265°
2026-05-07 10:43 55.74041 9.15446 232 ft 27 kts 265°
2026-05-07 10:43 55.74031 9.15141 231 ft 21 kts 266°
2026-05-07 10:43 55.74024 9.14886 230 ft 21 kts 266°
2026-05-07 10:43 55.74015 9.14618 229 ft 18 kts 267°
2026-05-07 10:44 55.74023 9.14490 229 ft 6 kts 359°
2026-05-07 10:44 55.74081 9.14492 229 ft 10 kts 358°
2026-05-07 10:44 55.74169 9.14484 230 ft 14 kts 356°
2026-05-07 10:44 55.74236 9.14488 230 ft 9 kts 24°
2026-05-07 10:45 55.74260 9.14591 231 ft 11 kts 87°
2026-05-07 10:45 55.74272 9.14662 231 ft 6 kts
2026-05-07 10:45 55.74321 9.14648 231 ft 1 kts 356°
2026-05-07 10:45 55.74326 9.14648 232 ft 0 kts 355°